Regional Weather Roundup
Issued by NWS

Home | Current Version | Previous Version | Text Only | Print | Product List | Glossary Off
Versions: 1 2 3 4 5 6 7 8 9 10 11 12 13 14 15 16 17 18 19 20 21 22 23 24 25 26 27 28 29 30 31 32 33 34 35 36 37 38 39 40 41 42 43 44 45 46 47 48 49 50

000
ASUS43 KBIS 252010
RWRND

NORTH DAKOTA REGIONAL WEATHER ROUNDUP
NATIONAL WEATHER SERVICE BISMARCK ND
300 PM CDT TUE APR 25 2017

NOTE: "FAIR" INDICATES FEW OR NO CLOUDS BELOW 12,000 FEET WITH NO
SIGNIFICANT WEATHER AND/OR OBSTRUCTIONS TO VISIBILITY.


NDZ001>003-009>011-017-252100-
NORTHWEST NORTH DAKOTA

CITY           SKY/WX    TMP DP  RH WIND       PRES   REMARKS
WILLISTON      FAIR      40  24  53 E15       29.97S
MINOT          CLOUDY    40  26  57 N20G25    29.92S
MINOT AFB      PTSUNNY   39  25  56 N17G24    29.92S
$$

NDZ018>021-031>035-040>046-252100-
SOUTHWEST NORTH DAKOTA

CITY           SKY/WX    TMP DP  RH WIND       PRES   REMARKS
BISMARCK       CLOUDY    33  26  75 N20G26    29.88S
DICKINSON      CLOUDY    28  23  81 N13       29.87S WCI  17
GARRISON         N/A     36  24  62 NE14G21   29.90S
HETTINGER ARPT CLOUDY    28  25  88 N14       29.86R WCI  17
$$

NDZ004>008-012>016-024-026-027-054-252100-
NORTHEAST NORTH DAKOTA

CITY           SKY/WX    TMP DP  RH WIND       PRES   REMARKS
GRAND FORKS    CLOUDY    37  30  75 N26       29.84S
GRND FRKS AFB  CLOUDY    34  27  75 NE23G30   29.85S
DEVILS LAKE    CLOUDY    32  26  78 NE17G25   29.89R
$$

NDZ022-023-025-028>030-036>039-047>053-252100-
SOUTHEAST NORTH DAKOTA

CITY           SKY/WX    TMP DP  RH WIND       PRES   REMARKS
FARGO          CLOUDY    38  31  76 N23G33    29.75S
JAMESTOWN      CLOUDY    32  28  85 N16G28    29.80F
$$





USA.gov is the U.S. government's official web portal to all federal, state and local government web resources and services.